This demonstration page uses our WeatherBlox Daily Observations layout. Learn more.

Left ArrowRight Arrow

39.92423, -83.80882

Hourly Observations for September 21, 2021

Temp ( °F °C ) Dew Point ( °F °C ) Humidity (%) Winds ( mph kmh ) Pressure ( in mb ) Visibility ( mi km ) Precip ( " mm )
12:56 am 00:56 Mostly Cloudy 66 19 N/A N/A SSE 7 11 30.06 1018 10 16 N/A
1:56 am 01:56 Clear 66 19 N/A N/A S 6 9 30.07 1018 10 16 N/A
2:56 am 02:56 Cloudy 66 19 N/A N/A N N/A 30.07 1018 10 16 N/A
3:56 am 03:56 Cloudy 66 19 N/A N/A SE 6 9 30.07 1018 10 16 N/A
4:56 am 04:56 Mostly Cloudy 66 19 N/A N/A SE 9 15 30.06 1018 10 16 N/A
5:56 am 05:56 Cloudy with Light Rain 66 19 N/A N/A SSE 5 7 30.06 1018 10 16 0.00 0.00
6:56 am 06:56 Cloudy with Light Rain 66 19 N/A N/A S 7 11 30.08 1019 10 16 0.00 0.00
7:43 am 07:43 Cloudy with Light Rain 66 19 N/A N/A S 7 11 30.08 1018 6 10 0.00 0.00
7:56 am 07:56 Cloudy with Light Rain 66 19 N/A N/A S 7 11 30.10 1019 4 6 0.02 0.51
8:04 am 08:04 Cloudy with Light Rain 66 19 N/A N/A S 6 9 30.09 1019 3 5 0.00 0.00
8:49 am 08:49 Cloudy with Rain 66 19 N/A N/A S 9 15 30.09 1019 3 4 0.06 1.52
8:56 am 08:56 Cloudy with Light Rain 66 19 N/A N/A SSE 9 15 30.10 1019 3 5 0.06 1.52
9:04 am 09:04 Cloudy with Light Rain 66 19 N/A N/A SSE 8 13 30.09 1019 3 4 0.02 0.51
9:11 am 09:11 Cloudy with Light Rain 66 19 N/A N/A S 7 11 30.09 1019 4 6 0.03 0.76
9:22 am 09:22 Cloudy with Rain 66 19 N/A N/A S 8 13 30.09 1019 3 4 0.10 2.54
9:52 am 09:52 Cloudy with Light Rain 66 19 N/A N/A SSE 8 13 30.09 1019 4 6 0.15 3.81
9:56 am 09:56 Cloudy with Light Rain 68 20 N/A N/A SSE 10 17 30.10 1019 5 8 0.15 3.81
10:53 am 10:53 Cloudy with Haze 68 20 N/A N/A S 8 13 30.09 1019 4 6 0.01 0.25
10:56 am 10:56 Cloudy with Mist and Fog 68 20 N/A N/A S 7 11 30.11 1020 3 5 0.01 0.25
11:56 am 11:56 Cloudy 70 21 N/A N/A S 9 15 30.11 1020 8 13 0.00 0.00
12:56 pm 12:56 Cloudy 72 22.2 72 22.2 100 100 S 10 17 30.09 1019 10 16 N/A
1:19 pm 13:19 Cloudy 72 22 72 22 100 100 S 8 13 30.06 1018 10 16 N/A
1:56 pm 13:56 Cloudy 70 21.1 70 21.1 100 100 S 8 13 30.09 1019 10 16 N/A
2:56 pm 14:56 Cloudy 70 21 N/A N/A S 7 11 30.07 1018 9 14 N/A
3:43 pm 15:43 Cloudy 72 22 N/A N/A SSW 8 13 30.02 1017 7 11 N/A
3:56 pm 15:56 Cloudy 72 22.2 72 22.2 100 100 undefined N/A 30.05 1018 10 16 N/A
4:34 pm 16:34 Cloudy 70 21 70 21 100 100 S 10 17 30.03 1017 9 14 N/A
4:56 pm 16:56 Cloudy with Light Rain 70 21 N/A N/A S 6 9 30.05 1018 5 8 0.00 0.00
5:17 pm 17:17 Cloudy with Haze 70 21 N/A N/A S 5 7 30.02 1017 4 6 0.00 0.00
5:51 pm 17:51 Cloudy 70 21 N/A N/A SSE 6 9 30.02 1017 8 13 0.00 0.00
5:56 pm 17:56 Cloudy 70 21 N/A N/A SSE 7 11 30.03 1017 7 11 0.00 0.00
6:56 pm 18:56 Cloudy with Light Rain 70 21 N/A N/A S 5 7 30.04 1017 4 6 0.00 0.00
7:06 pm 19:06 Cloudy with Light Rain 70 21 N/A N/A S 6 9 30.01 1016 5 8 0.01 0.25
7:30 pm 19:30 Cloudy with Haze 70 21 N/A N/A S 6 9 30.01 1016 6 10 0.01 0.25
7:56 pm 19:56 Cloudy 70 21 N/A N/A N N/A 30.02 1017 10 16 0.01 0.25
8:26 pm 20:26 Cloudy 68 20 N/A N/A N N/A 30.01 1016 10 16 N/A
8:45 pm 20:45 Cloudy 68 20 N/A N/A N N/A 30.01 1016 9 14 N/A
8:56 pm 20:56 Cloudy 68 20 N/A N/A SE 3 6 30.03 1017 9 14 N/A
9:09 pm 21:09 Cloudy 68 20 N/A N/A ESE 5 7 30.01 1016 8 13 N/A
9:56 pm 21:56 Cloudy 68 20 N/A N/A SE 9 15 30.02 1017 10 16 N/A
10:56 pm 22:56 Cloudy 68 20 N/A N/A SSE 8 13 30.01 1016 10 16 N/A
11:56 pm 23:56 Cloudy 68 20 N/A N/A SSE 6 9 29.99 1016 10 16 N/A

Powered by AerisWeather